This is the latest recevied weather packets stored in our database for station/object KF7SOJ. If no packets are shown the sender has not sent any weather packets the latest 10 day(s).
| Time | Temp. | Humidity | Pressure | Rain* | Wind** | Luminosity | Snow |
|---|---|---|---|---|---|---|---|
| 1778033427 | 6.11° C | 36% | 933.9 hPa | 0 mm | - | 13 W/m² | - |
| 1778033125 | 6.11° C | 36% | 933.8 hPa | 0 mm | - | 17 W/m² | - |
| 1778032822 | 6.67° C | 36% | 933.9 hPa | 0 mm | - | 20 W/m² | - |
| 1778032519 | 6.67° C | 36% | 933.7 hPa | 0 mm | - | 24 W/m² | - |
| 1778032216 | 6.67° C | 35% | 933.8 hPa | 0 mm | - | 30 W/m² | - |
| 1778031914 | 7.22° C | 34% | 933.8 hPa | 0 mm | - | 33 W/m² | - |
| 1778031609 | 7.22° C | 35% | 933.8 hPa | 0 mm | - | 38 W/m² | - |
| 1778031307 | 7.78° C | 32% | 933.8 hPa | 0 mm | - | 64 W/m² | - |
| 1778031004 | 7.78° C | 32% | 933.8 hPa | 0 mm | - | 64 W/m² | - |
| 1778030700 | 7.78° C | 32% | 933.7 hPa | 0 mm | - | 78 W/m² | - |
| 1778030397 | 7.78° C | 32% | 933.9 hPa | 0 mm | - | 90 W/m² | - |
| 1778030094 | 7.78° C | 32% | 933.7 hPa | 0 mm | - | 97 W/m² | - |
| 1778029790 | 8.33° C | 32% | 933.7 hPa | 0 mm | - | 55 W/m² | - |
| 1778029490 | 8.33° C | 32% | 933.5 hPa | 0 mm | - | 129 W/m² | - |
| 1778029185 | 8.89° C | 32% | 933.5 hPa | 0 mm | - | 169 W/m² | - |
| 1778028884 | 8.89° C | 32% | 933.6 hPa | 0 mm | - | 169 W/m² | - |
| 1778028578 | 8.89° C | 32% | 933.6 hPa | 0 mm | - | 175 W/m² | - |
| 1778028277 | 8.89° C | 32% | 933.3 hPa | 0 mm | - | 213 W/m² | - |
| 1778027972 | 8.89° C | 32% | 933.5 hPa | 0 mm | - | 208 W/m² | - |
| 1778027669 | 8.33° C | 32% | 933.3 hPa | 0 mm | - | 221 W/m² | - |
| 1778027366 | 8.89° C | 32% | 933.4 hPa | 0 mm | - | 80 W/m² | - |
| 1778027061 | 8.89° C | 31% | 933.3 hPa | 0 mm | - | 256 W/m² | - |
| 1778026757 | 8.89° C | 31% | 933.3 hPa | 0 mm | - | 287 W/m² | - |
| 1778026455 | 8.89° C | 33% | 933.3 hPa | 0 mm | - | 301 W/m² | - |
| 1778026152 | 8.89° C | 31% | 933.3 hPa | 0 mm | - | 346 W/m² | - |
* Rain latest hour (hover to see other rain measurements)
** Current wind speed in m/s (hover to see current wind gust speed)